[[{"header":{"parameterUnit":"m.s-1","parameterCategory":1,"la1":30.2991,"la2":30.254,"lo1":-89.0895,"lo2":-89.0444,"dy":0.0017,"dx":0.0017,"nx":28,"ny":28,"refTime":"2025-07-29T03:00:00:Z","depth":0,"parameterNumber":2,"parameterNumberName":"U-component_of_WINDS"},"data":[0,0,0,0,0,0,0,0,0,0,0,0,0,0,0,0,0,0,0,0,0,0,0,0,0,0,0,0,0,0,0,0,0,0,0,0,0,0,0,0,0,0,0,0,0,0,0,0,0,0,0,0,0,0,0,0,0,0,1.7978,1.7978,0,1.8039,1.804,1.8041,1.7986,1.7984,1.7982,1.798,1.8049,1.8053,1.8056,0,0,0,0,0,0,0,0,0,0,0,0,0,1.7821,1.7824,1.7978,1.7978,1.7979,1.8039,1.804,1.8041,1.7987,1.7984,1.7981,1.7979,1.8047,1.8052,1.8057,0,0,0,0,0,0,0,0,0,0,0,0,0,1.7887,1.7825,1.7978,1.7959,1.7958,1.8039,1.804,1.8041,1.7987,1.7984,1.7981,1.7977,1.8046,1.8052,1.8057,1.8161,0,0,1.8075,1.8078,0,0,0,0,0,0,0,0,1.7883,1.7892,1.7961,1.7961,1.796,1.8001,1.801,1.8081,1.7988,1.7977,1.798,1.7976,1.8036,1.8043,1.8062,1.8164,1.8167,1.8076,1.808,1.8082,1.8084,0,0,0,0,0,0,0,1.7879,1.789,1.8002,1.7962,1.7961,1.7951,1.7956,1.8023,1.8025,1.7977,1.7973,1.7981,1.8035,1.8056,1.8063,1.8168,1.8076,1.8081,1.8085,1.8087,1.8363,1.8367,0,0,0,0,0,0,1.7875,1.7886,1.8,1.8004,1.7912,1.7956,1.7962,1.7992,1.8024,1.8025,1.7984,1.7978,1.8048,1.8056,1.8065,1.8191,1.8082,1.8088,1.8091,1.8359,1.8364,1.8368,0,0,0,0,0,0,1.7872,1.7886,1.7998,1.7944,1.7957,1.7962,1.7996,1.7995,1.8015,1.8029,1.8029,1.8005,1.8045,1.8057,1.8138,1.8193,1.809,1.8096,1.8355,1.8361,1.8366,1.8443,0,0,0,0,0,0,1.7867,1.7885,1.7922,1.7945,1.796,1.8068,1.7999,1.7998,1.8025,1.8018,1.8048,1.805,1.8044,1.813,1.8144,1.8199,1.81,1.835,1.8357,1.8364,1.8436,1.8451,1.8463,0,0,0,0,0,1.7862,1.7942,1.7924,1.7938,1.8007,1.8071,1.808,1.8069,1.803,1.8069,1.8078,1.8049,1.8184,1.8138,1.8154,1.8212,1.8347,1.8355,1.8364,1.8429,1.8448,1.8463,0,0,0,0,0,0,1.7927,1.7945,1.7925,1.8014,1.8041,1.8061,1.811,1.8088,1.8128,1.8121,1.8107,1.8115,1.8201,1.8214,1.8163,1.8316,1.8259,1.8272,1.8304,1.8322,1.8335,1.8331,1.8105,0,0,0,0,0,1.7951,1.7999,1.8013,1.809,1.8105,1.8105,1.8133,1.8122,1.815,1.8162,1.8176,1.8207,1.8256,1.8289,1.8335,1.8437,1.8445,1.8485,1.8499,1.851,1.8521,1.858,1.8599,1.8396,1.8396,1.8396,0,0,1.8003,1.8018,1.8049,1.8104,1.8123,1.8176,1.8115,1.8173,1.8213,1.8171,1.8249,1.8261,1.8294,1.8387,1.8429,1.8401,1.8579,1.8521,1.853,1.8535,1.8591,1.861,1.8627,1.8402,1.8401,1.84,0,0,1.8124,1.8139,1.8207,1.8228,1.8258,1.8258,1.8274,1.8298,1.8305,1.8382,1.8353,1.8401,1.8485,1.8511,1.8536,1.8669,1.8646,1.8685,1.8759,1.8816,1.8832,1.8846,1.8897,1.8915,1.8696,1.8696,1.8696,0,1.8185,1.8261,1.8245,1.8305,1.8332,1.8295,1.8366,1.8387,1.8432,1.8452,1.842,1.8527,1.8547,1.8647,1.8679,1.8699,1.872,1.8682,1.883,1.8844,1.8857,1.8906,1.8925,1.8701,1.87,1.87,1.8699,0,1.8336,1.8389,1.8441,1.8484,1.8516,1.8581,1.8578,1.8613,1.86,1.8605,1.8686,1.8708,1.876,1.8782,1.877,1.8882,1.8864,1.8831,1.8775,1.8882,1.8927,1.8945,1.8707,1.8706,1.8704,1.8703,0,0,1.85,1.8534,1.8553,1.8574,1.8605,1.8648,1.8713,1.8761,1.8793,1.8826,1.8882,1.8956,1.8926,1.8954,1.8945,1.8994,1.9103,1.8956,1.8957,1.8985,1.9232,1.9259,1.928,1.9087,1.909,1.9093,1.923,0,1.8625,1.8736,1.8725,1.8832,1.8883,1.885,1.8907,1.8934,1.8941,1.8988,1.8995,1.9049,1.9004,1.9021,1.9068,1.908,1.9153,1.907,1.9143,1.9146,1.9139,1.9303,1.9331,1.9459,1.9248,1.9251,1.9253,0,1.8785,1.8822,1.8934,1.896,1.8982,1.9033,1.9079,1.9122,1.9154,1.9155,1.9187,1.917,1.924,1.918,1.9277,1.9221,1.925,1.9261,1.9265,1.9274,1.9208,1.932,1.9499,1.952,1.928,1.9278,1.9276,0,1.8898,1.8976,1.9054,1.9072,1.9103,1.9141,1.9156,1.9184,1.9215,1.9255,1.9276,1.9324,1.9352,1.9391,1.9389,1.9345,1.949,1.9429,1.9496,1.9496,1.9529,1.9528,1.972,1.9544,1.9544,1.9543,1.9543,0,1.904,1.9111,1.9105,1.9153,1.9233,1.922,1.93,1.9311,1.9337,1.9389,1.9363,1.9413,1.9406,1.9457,1.9456,1.9539,1.9551,1.9557,1.9556,1.9561,1.9561,1.9582,1.9574,1.9548,1.9547,1.9546,1.9545,0,1.918,1.9179,1.9262,1.9285,1.9292,1.935,1.9371,1.9419,1.9423,1.949,1.9505,1.9513,1.9572,1.9573,1.9642,1.9641,1.9743,1.9731,1.9732,1.9731,1.9799,1.9794,2.0014,2.0044,1.9846,1.9848,1.9849,0,1.9272,1.9326,1.9355,1.9387,1.9404,1.9456,1.9488,1.9479,1.9513,1.9554,1.9598,1.9654,1.9699,1.9796,1.9809,1.9862,1.9853,1.9927,1.9861,1.9865,1.9859,1.9857,1.9864,1.9941,1.9943,1.9944,1.9946,0,1.9437,1.9434,1.948,1.9526,1.9564,1.96,1.9634,1.9662,1.9657,1.9698,1.9757,1.9792,1.9862,1.992,1.9971,1.999,1.9969,1.9966,1.9985,1.9992,1.9992,1.9996,1.9771,1.9962,1.996,1.9959,1.9958,1.9957,1.9559,1.9606,1.9634,1.9687,1.971,1.9743,1.9789,1.9799,1.9848,1.9903,1.9895,1.9963,1.9996,2.0062,2.0086,2.014,2.0115,2.0142,2.0149,2.0157,2.0166,1.998,2.0149,2.0149,2.0148,2.0148,2.0148,0,1.9726,1.9742,1.979,1.9838,1.988,1.9853,1.989,1.9928,1.9987,2.0018,2.0063,2.0133,2.019,2.0208,2.0263,2.0304,2.0296,2.0319,2.0318,2.0323,2.0183,2.0163,2.0325,2.0325,2.0325,2.0325,2.0325,2.0325,1.9817,1.9897,1.9898,1.999,2.0007,2.0071,2.0095,2.0126,2.0151,2.0231,2.0277,2.0287,2.0315,2.0373,2.0424,2.0429,2.0452,2.048,2.0481,2.035,2.0333,2.0316,2.0297,2.0484,2.0484,2.0617,2.0618,2.0619]},{"header":{"parameterUnit":"m.s-1","parameterCategory":1,"la1":30.2991,"la2":30.254,"lo1":-89.0895,"lo2":-89.0444,"dy":0.0017,"dx":0.0017,"nx":28,"ny":28,"refTime":"2025-07-29T03:00:00:Z","depth":0,"parameterNumber":3,"parameterNumberName":"V-component_of_WINDS"},"data":[0,0,0,0,0,0,0,0,0,0,0,0,0,0,0,0,0,0,0,0,0,0,0,0,0,0,0,0,0,0,0,0,0,0,0,0,0,0,0,0,0,0,0,0,0,0,0,0,0,0,0,0,0,0,0,0,0,0,-0.6564,-0.6563,0,-0.641,-0.6408,-0.6406,-0.6376,-0.6377,-0.6378,-0.638,-0.6213,-0.6207,-0.6202,0,0,0,0,0,0,0,0,0,0,0,0,0,-0.6826,-0.6821,-0.6565,-0.6563,-0.6561,-0.641,-0.6408,-0.6405,-0.6376,-0.6377,-0.6379,-0.638,-0.6215,-0.6208,-0.6201,0,0,0,0,0,0,0,0,0,0,0,0,0,-0.6696,-0.682,-0.6565,-0.6528,-0.6523,-0.641,-0.6408,-0.6405,-0.6375,-0.6377,-0.6379,-0.6381,-0.6217,-0.6209,-0.62,-0.6111,0,0,-0.6175,-0.6171,0,0,0,0,0,0,0,0,-0.6703,-0.6686,-0.6535,-0.653,-0.6525,-0.6414,-0.6439,-0.6306,-0.6375,-0.6431,-0.638,-0.6382,-0.6278,-0.6265,-0.6231,-0.6103,-0.6096,-0.6174,-0.6169,-0.6165,-0.6163,0,0,0,0,0,0,0,-0.6712,-0.6692,-0.6503,-0.6533,-0.6527,-0.6516,-0.65,-0.6413,-0.6346,-0.6426,-0.6424,-0.6406,-0.6275,-0.6239,-0.6227,-0.6094,-0.6174,-0.6167,-0.6162,-0.6158,-0.5881,-0.5879,0,0,0,0,0,0,-0.6729,-0.67,-0.6508,-0.6498,-0.6621,-0.651,-0.6491,-0.6448,-0.6347,-0.6333,-0.6405,-0.6406,-0.6253,-0.6237,-0.6221,-0.6107,-0.6165,-0.6158,-0.6153,-0.5883,-0.5881,-0.5878,0,0,0,0,0,0,-0.6735,-0.6712,-0.6514,-0.6598,-0.6573,-0.6503,-0.6454,-0.6444,-0.6408,-0.633,-0.6317,-0.6381,-0.6254,-0.6233,-0.6138,-0.6101,-0.6154,-0.6146,-0.5886,-0.5883,-0.5879,-0.5881,0,0,0,0,0,0,-0.6742,-0.6714,-0.6682,-0.6598,-0.6568,-0.6437,-0.6452,-0.6439,-0.6394,-0.6394,-0.6305,-0.6292,-0.6253,-0.6151,-0.613,-0.609,-0.614,-0.5889,-0.5885,-0.5881,-0.5883,-0.5878,-0.5872,0,0,0,0,0,-0.6752,-0.6687,-0.668,-0.6657,-0.6527,-0.6435,-0.6418,-0.6377,-0.6392,-0.6356,-0.6306,-0.6295,-0.6109,-0.6142,-0.6118,-0.6075,-0.5891,-0.5886,-0.5881,-0.5886,-0.5879,-0.5873,0,0,0,0,0,0,-0.6766,-0.6676,-0.6667,-0.6575,-0.6513,-0.643,-0.6385,-0.6371,-0.6302,-0.6304,-0.6254,-0.6234,-0.6142,-0.6099,-0.6137,-0.5981,-0.6001,-0.599,-0.6013,-0.6005,-0.6,-0.6011,-0.6133,0,0,0,0,0,-0.6759,-0.6695,-0.6618,-0.6544,-0.6514,-0.6455,-0.6413,-0.6388,-0.6321,-0.6294,-0.6237,-0.617,-0.6096,-0.6049,-0.5977,-0.5878,-0.5856,-0.5836,-0.5831,-0.5827,-0.5817,-0.5758,-0.5748,-0.5861,-0.5861,-0.5861,0,0,-0.6743,-0.6685,-0.6648,-0.6545,-0.6494,-0.6426,-0.6433,-0.6361,-0.6308,-0.6282,-0.6189,-0.6145,-0.6067,-0.5969,-0.5923,-0.5931,-0.5782,-0.582,-0.5817,-0.581,-0.5752,-0.5741,-0.5732,-0.5857,-0.5858,-0.5859,0,0,-0.6677,-0.6629,-0.6561,-0.651,-0.6434,-0.6395,-0.6378,-0.6297,-0.6267,-0.6175,-0.6153,-0.6088,-0.5963,-0.5908,-0.5863,-0.5775,-0.576,-0.5753,-0.5723,-0.5666,-0.5657,-0.5649,-0.5614,-0.5603,-0.5745,-0.5745,-0.5745,0,-0.6666,-0.6565,-0.6526,-0.6454,-0.6408,-0.6384,-0.6312,-0.6263,-0.6167,-0.6134,-0.6144,-0.5986,-0.5932,-0.5819,-0.5798,-0.5763,-0.574,-0.5762,-0.5662,-0.5654,-0.5645,-0.5612,-0.5599,-0.5744,-0.5744,-0.5744,-0.5744,0,-0.6552,-0.6482,-0.6435,-0.6344,-0.6293,-0.6222,-0.6169,-0.6122,-0.61,-0.6059,-0.5962,-0.5897,-0.581,-0.5782,-0.576,-0.5665,-0.5671,-0.5673,-0.569,-0.5635,-0.5602,-0.5589,-0.5743,-0.5744,-0.5744,-0.5744,0,0,-0.6491,-0.638,-0.6363,-0.632,-0.6234,-0.6177,-0.6103,-0.602,-0.5979,-0.5913,-0.5846,-0.5741,-0.5741,-0.5691,-0.5662,-0.5612,-0.5543,-0.5619,-0.5616,-0.5604,-0.543,-0.5428,-0.5414,-0.5534,-0.5531,-0.5529,-0.5436,0,-0.6413,-0.6283,-0.6245,-0.6134,-0.6066,-0.6041,-0.5976,-0.5914,-0.5874,-0.5808,-0.5762,-0.5687,-0.5695,-0.5664,-0.5614,-0.5562,-0.5507,-0.5569,-0.5468,-0.5465,-0.5486,-0.5397,-0.5395,-0.531,-0.5423,-0.5421,-0.5419,0,-0.6305,-0.6238,-0.6121,-0.6041,-0.6011,-0.5953,-0.5873,-0.5812,-0.574,-0.5714,-0.5657,-0.5632,-0.555,-0.5575,-0.5459,-0.5502,-0.5458,-0.5426,-0.5422,-0.5408,-0.5437,-0.5378,-0.5282,-0.5268,-0.5399,-0.5401,-0.5403,0,-0.6268,-0.6149,-0.6062,-0.6027,-0.5933,-0.5892,-0.585,-0.5781,-0.5732,-0.5661,-0.5629,-0.5549,-0.5504,-0.5441,-0.5394,-0.5417,-0.5281,-0.5302,-0.5253,-0.5254,-0.5224,-0.5226,-0.5116,-0.5201,-0.5201,-0.5202,-0.5202,0,-0.6183,-0.6111,-0.6044,-0.5991,-0.5908,-0.5865,-0.5783,-0.574,-0.5678,-0.5613,-0.5587,-0.5525,-0.5468,-0.5399,-0.5361,-0.5269,-0.525,-0.5223,-0.5214,-0.5224,-0.5227,-0.5193,-0.5196,-0.5198,-0.5199,-0.52,-0.52,0,-0.6127,-0.608,-0.5984,-0.5903,-0.588,-0.5823,-0.5751,-0.5696,-0.5656,-0.5573,-0.5551,-0.5485,-0.5402,-0.5349,-0.5243,-0.5217,-0.5115,-0.5109,-0.514,-0.5135,-0.5088,-0.5092,-0.495,-0.4928,-0.5031,-0.503,-0.5029,0,-0.6075,-0.6019,-0.5932,-0.5888,-0.5847,-0.5776,-0.5727,-0.5681,-0.563,-0.5543,-0.5498,-0.5413,-0.5343,-0.521,-0.515,-0.5068,-0.5058,-0.5014,-0.5045,-0.5056,-0.5053,-0.5056,-0.5048,-0.5008,-0.5007,-0.5006,-0.5005,0,-0.5986,-0.5965,-0.5897,-0.582,-0.5763,-0.5699,-0.5635,-0.56,-0.5542,-0.5486,-0.5402,-0.5347,-0.5239,-0.5154,-0.5066,-0.5019,-0.5001,-0.4997,-0.498,-0.4989,-0.5008,-0.4993,-0.5123,-0.4999,-0.5,-0.5,-0.5001,-0.5001,-0.5928,-0.5876,-0.5807,-0.5731,-0.5678,-0.5619,-0.5563,-0.5515,-0.5445,-0.5354,-0.5331,-0.5241,-0.5167,-0.5048,-0.5,-0.4927,-0.4932,-0.491,-0.4903,-0.4898,-0.4895,-0.5022,-0.4911,-0.4911,-0.4911,-0.4911,-0.4911,0,-0.5835,-0.5789,-0.572,-0.5632,-0.5571,-0.5563,-0.5491,-0.544,-0.5362,-0.5297,-0.5228,-0.5129,-0.5046,-0.4981,-0.4894,-0.4848,-0.4837,-0.4827,-0.4828,-0.4817,-0.4897,-0.4918,-0.4837,-0.4837,-0.4837,-0.4837,-0.4837,-0.4837,-0.578,-0.5691,-0.5661,-0.5545,-0.5498,-0.5412,-0.5371,-0.5315,-0.5262,-0.5154,-0.5085,-0.5044,-0.4976,-0.4885,-0.4807,-0.479,-0.4757,-0.4748,-0.4728,-0.4803,-0.4812,-0.4819,-0.4839,-0.4742,-0.4742,-0.4654,-0.4653,-0.4652]}]]